Weather History for Oxford, MS

Change the Weather History Date:

Wednesday, April 2, 2014

  Actual Average Record
Temperature  
Mean Temperature 68 °F -  
Max Temperature 77 °F 70 °F 86 °F (1963)
Min Temperature 59 °F 43 °F 27 °F (1992)
Cooling Degree Days 3    
Growing Degree Days 18 (Base 50)    
Moisture  
Dew Point 59 °F    
Average Humidity 74    
Maximum Humidity 88    
Minimum Humidity 54    
Precipitation  
Precipitation 0.00 in - - ()
Sea Level Pressure  
Sea Level Pressure 30.01 in    
Wind  
Wind Speed 4 mph (South)    
Max Wind Speed 12 mph    
Max Gust Speed 22 mph    
Visibility 10 miles    
Events      
Averages and records for this station are not official NWS values.
T = Trace of Precipitation, MM = Missing Value Source: NWS Daily Summary

Daily Weather History Graph

Daily Weather History Graph

Search for Another Location

Airport:

Trip Planner

Search our weather history database for the weather conditions in past years. The results will help you decide how hot, cold, wet, or windy it might be!

Date:

Astronomy

Apr. 02, 2014 Rise Set
Actual Time 6:43 AM CDT 7:19 PM CDT
Civil Twilight 6:18 AM CDT 7:45 PM CDT
Nautical Twilight 5:48 AM CDT 8:15 PM CDT
Astronomical Twilight 5:18 AM CDT 8:45 PM CDT
Moon 8:35 AM CDT (4/2) 10:35 PM CDT (4/2)
Length of Visible Light 13h 26m
Length of Day
12h 36m
Waxing Crescent, 10% of the Moon is Illuminated
Apr 2
Waxing Crescent
Apr 7
First Quarter
Apr 15
Full
Apr 22
Last Quarter
Apr 29
New

Hourly Weather History & Observations

Time (CDT) Temp. Dew Point Humidity Pressure Visibility Wind Dir Wind Speed Gust Speed Precip Events Conditions
12:15 AM 59.0 °F 53.6 °F 82% 30.02 in 10.0 mi Calm Calm - N/A   Clear
12:35 AM 60.8 °F 53.6 °F 77% 30.02 in 10.0 mi Calm Calm - N/A   Mostly Cloudy
12:55 AM 60.8 °F 53.6 °F 77% 30.02 in 10.0 mi Calm Calm - N/A   Mostly Cloudy
1:15 AM 62.6 °F 53.6 °F 72% 30.02 in 10.0 mi South 3.5 mph - N/A   Scattered Clouds
1:35 AM 60.8 °F 53.6 °F 77% 30.02 in 10.0 mi Calm Calm - N/A   Scattered Clouds
1:55 AM 62.6 °F 53.6 °F 72% 30.02 in 10.0 mi South 3.5 mph - N/A   Overcast
2:15 AM 64.4 °F 55.4 °F 73% 30.02 in 10.0 mi South 4.6 mph - N/A   Overcast
2:35 AM 64.4 °F 55.4 °F 73% 30.02 in 10.0 mi South 4.6 mph - N/A   Overcast
2:55 AM 64.4 °F 55.4 °F 73% 30.02 in 10.0 mi South 4.6 mph - N/A   Mostly Cloudy
3:15 AM 64.4 °F 55.4 °F 73% 30.02 in 10.0 mi South 3.5 mph - N/A   Mostly Cloudy
3:35 AM 64.4 °F 55.4 °F 73% 30.02 in 10.0 mi South 4.6 mph - N/A   Mostly Cloudy
3:55 AM 64.4 °F 55.4 °F 73% 30.02 in 10.0 mi SSW 5.8 mph - N/A   Overcast
4:15 AM 64.4 °F 57.2 °F 77% 30.02 in 10.0 mi SSW 5.8 mph - N/A   Mostly Cloudy
4:35 AM 62.6 °F 57.2 °F 82% 30.02 in 10.0 mi South 4.6 mph - N/A   Scattered Clouds
4:55 AM 62.6 °F 55.4 °F 77% 30.02 in 10.0 mi South 4.6 mph - N/A   Scattered Clouds
5:15 AM 62.6 °F 55.4 °F 77% 30.03 in 10.0 mi SSW 4.6 mph - N/A   Partly Cloudy
5:35 AM 62.6 °F 57.2 °F 82% 30.03 in 10.0 mi South 4.6 mph - N/A   Clear
5:55 AM 60.8 °F 57.2 °F 88% 30.03 in 10.0 mi South 3.5 mph - N/A   Clear
6:15 AM 60.8 °F 57.2 °F 88% 30.04 in 10.0 mi South 3.5 mph - N/A   Partly Cloudy
7:35 AM 62.6 °F 57.2 °F 82% 30.07 in 9.0 mi South 4.6 mph - N/A   Overcast
7:55 AM 62.6 °F 57.2 °F 82% 30.07 in 8.0 mi SSW 5.8 mph - N/A   Mostly Cloudy
8:15 AM 62.6 °F 57.2 °F 82% 30.07 in 9.0 mi South 4.6 mph - N/A   Scattered Clouds
8:35 AM 64.4 °F 59.0 °F 83% 30.07 in 9.0 mi SW 6.9 mph - N/A   Mostly Cloudy
8:55 AM 64.4 °F 59.0 °F 83% 30.08 in 10.0 mi SW 4.6 mph - N/A   Mostly Cloudy
9:15 AM 64.4 °F 59.0 °F 83% 30.07 in 9.0 mi SW 4.6 mph - N/A   Mostly Cloudy
9:35 AM 66.2 °F 59.0 °F 78% 30.07 in 10.0 mi SW 10.4 mph - N/A   Mostly Cloudy
9:55 AM 66.2 °F 59.0 °F 78% 30.08 in 8.0 mi SW 8.1 mph - N/A   Mostly Cloudy
10:15 AM 66.2 °F 59.0 °F 78% 30.07 in 10.0 mi SSW 6.9 mph - N/A   Mostly Cloudy
10:35 AM 68.0 °F 59.0 °F 73% 30.07 in 9.0 mi South 4.6 mph - N/A   Mostly Cloudy
10:55 AM 68.0 °F 59.0 °F 73% 30.06 in 10.0 mi South 5.8 mph - N/A   Mostly Cloudy
11:35 AM 71.6 °F 59.0 °F 64% 30.06 in 10.0 mi South 5.8 mph - N/A   Mostly Cloudy
11:55 AM 71.6 °F 59.0 °F 64% 30.05 in 10.0 mi SSW 8.1 mph - N/A   Scattered Clouds
12:15 PM 75.2 °F 59.0 °F 57% 30.04 in 10.0 mi SSW 11.5 mph 19.6 mph N/A   Partly Cloudy
12:55 PM 75.2 °F 59.0 °F 57% 30.03 in 9.0 mi South 8.1 mph 17.3 mph N/A   Partly Cloudy
1:15 PM 75.2 °F 59.0 °F 57% 30.03 in 9.0 mi SSW 6.9 mph 18.4 mph N/A   Scattered Clouds
1:35 PM 75.2 °F 59.0 °F 57% 30.02 in 10.0 mi SSW 8.1 mph 20.7 mph N/A   Mostly Cloudy
1:55 PM 77.0 °F 59.0 °F 54% 30.01 in 10.0 mi SSW 6.9 mph 21.9 mph N/A   Mostly Cloudy
2:15 PM 75.2 °F 60.8 °F 61% 30.00 in 10.0 mi South 5.8 mph 20.7 mph N/A   Scattered Clouds
2:35 PM 77.0 °F 60.8 °F 57% 30.00 in 10.0 mi South 8.1 mph - N/A   Partly Cloudy
2:55 PM 75.2 °F 60.8 °F 61% 30.00 in 10.0 mi SSW 11.5 mph 16.1 mph N/A   Scattered Clouds
3:15 PM 75.2 °F 60.8 °F 61% 29.98 in 10.0 mi SSW 8.1 mph 17.3 mph N/A   Scattered Clouds
3:35 PM 73.4 °F 60.8 °F 65% 30.00 in 10.0 mi SSW 8.1 mph - N/A   Clear
3:55 PM 73.4 °F 60.8 °F 65% 30.00 in 9.0 mi South 8.1 mph 17.3 mph N/A   Partly Cloudy
4:15 PM 73.4 °F 60.8 °F 65% 29.99 in 10.0 mi South 6.9 mph 18.4 mph N/A   Mostly Cloudy
4:35 PM 71.6 °F 60.8 °F 69% 29.99 in 10.0 mi South 5.8 mph - N/A   Mostly Cloudy
4:55 PM 71.6 °F 60.8 °F 69% 29.99 in 10.0 mi South 5.8 mph - N/A   Mostly Cloudy
5:15 PM 73.4 °F 60.8 °F 65% 29.98 in 10.0 mi SSE 6.9 mph - N/A   Mostly Cloudy
5:35 PM 73.4 °F 60.8 °F 65% 29.98 in 10.0 mi South 8.1 mph - N/A   Scattered Clouds
5:55 PM 71.6 °F 60.8 °F 69% 29.98 in 10.0 mi SSE 4.6 mph - N/A   Partly Cloudy
6:15 PM 71.6 °F 60.8 °F 69% 29.98 in 10.0 mi South 3.5 mph - N/A   Clear
6:35 PM 71.6 °F 60.8 °F 69% 29.97 in 10.0 mi Calm Calm - N/A   Clear
6:55 PM 71.6 °F 60.8 °F 69% 29.97 in 10.0 mi SSE 4.6 mph - N/A   Scattered Clouds
7:15 PM 71.6 °F 62.6 °F 73% 29.96 in 10.0 mi SSE 3.5 mph - N/A   Scattered Clouds
7:35 PM 69.8 °F 62.6 °F 78% 29.95 in 10.0 mi SSE 4.6 mph - N/A   Clear
7:55 PM 69.8 °F 62.6 °F 78% 29.97 in 10.0 mi South 4.6 mph - N/A   Clear
8:15 PM 69.8 °F 62.6 °F 78% 29.97 in 10.0 mi South 3.5 mph - N/A   Clear
8:35 PM 69.8 °F 62.6 °F 78% 29.98 in 10.0 mi SSE 4.6 mph - N/A   Scattered Clouds
8:55 PM 69.8 °F 62.6 °F 78% 29.98 in 10.0 mi SSE 3.5 mph - N/A   Partly Cloudy
9:15 PM 69.8 °F 62.6 °F 78% 29.98 in 10.0 mi SSE 3.5 mph - N/A   Clear
9:35 PM 68.0 °F 62.6 °F 83% 29.97 in 10.0 mi SSE 3.5 mph - N/A   Clear
9:55 PM 68.0 °F 62.6 °F 83% 29.98 in 10.0 mi SSE 3.5 mph - N/A   Clear
10:15 PM 68.0 °F 62.6 °F 83% 29.98 in 10.0 mi Calm Calm - N/A   Clear
10:55 PM 68.0 °F 62.6 °F 83% 29.97 in 10.0 mi SSE 3.5 mph - N/A   Clear
11:15 PM 68.0 °F 62.6 °F 83% 29.97 in 10.0 mi SSE 3.5 mph - N/A   Clear
11:35 PM 68.0 °F 62.6 °F 83% 29.97 in 10.0 mi SSE 3.5 mph - N/A   Clear
11:55 PM 66.2 °F 62.6 °F 88% 29.97 in 10.0 mi South 5.8 mph - N/A   Clear